[Iaude] MPEC E13: 2024 CH11 [a=2.13,e=0.58,i=5.2,H=22.0,PHA]

mpec at cfa.harvard.edu mpec at cfa.harvard.edu
Sat Mar 2 12:18:11 EST 2024


M.P.E.C. 2024-E13                                 Issued 2024 March 2, 17:16 UT

     The Minor Planet Electronic Circulars contain information on unusual
         minor planets, routine data on comets and natural satellites,
         and occasional editorial announcements.  They are published
    on behalf of Division F of the International Astronomical Union by the
          Minor Planet Center, Smithsonian Astrophysical Observatory,
                          Cambridge, MA 02138, U.S.A.
			  
             Prepared using the Tamkin Foundation Computer Network

                              MPC at CFA.HARVARD.EDU
            URL https://www.minorplanetcenter.net/    ISSN 1523-6714

                                   2024 CH11                                    


Observations:
     K24C11H  C2024 02 04.57232010 03 54.910+08 04 07.15         21.57GVEE013F52
     K24C11H  C2024 02 05.44682610 03 04.758+07 56 59.99         21.17GVEE013F52
     K24C11H  C2024 02 05.45801610 03 04.012+07 56 54.29         21.92GVEE013F52
     K24C11H* C2024 02 13.46208909 52 51.940+06 45 30.79         21.15wXEE013F52
     K24C11H  C2024 02 13.47453109 52 50.660+06 45 23.48         21.05wXEE013F52
     K24C11H  C2024 02 13.48690009 52 49.393+06 45 16.11         21.02wXEE013F52
     K24C11H  C2024 02 13.49923609 52 48.140+06 45 08.93         21.26wXEE013F52
     K24C11H  C2024 02 27.36116509 23 53.616+03 54 02.64         20.80GVEE013F51
     K24C11H  C2024 02 27.36387609 23 53.173+03 54 00.15         20.44GVEE013F51
     K24C11H  C2024 02 28.32277309 21 19.521+03 38 43.11         19.90GVEE013F51
     K24C11H  C2024 02 28.32552109 21 19.031+03 38 40.12         20.18GVEE013F51
     K24C11H  C2024 03 02.41617709 12 29.252+02 45 16.75         20.68wXEE013F51
     K24C11H  C2024 03 02.42824309 12 26.948+02 45 03.47         20.56wXEE013F51
     K24C11H  C2024 03 02.44024909 12 24.639+02 44 50.19         20.57wXEE013F51
     K24C11H  C2024 03 02.45229309 12 22.342+02 44 36.90         20.64wXEE013F51

Observer details:
F51 Pan-STARRS 1, Haleakala.  Observers J. Herman, T. Lowe, P. Minguez, A.
    Schultz, I. Smith.  Measurers K. Chambers, T. de Boer, J. Fairlamb, H.
    Gao, M. Huber, C.-C. Lin, E. Magnier, Y. Ramanjooloo, R. Wainscoat, R.
    Weryk.  1.8-m Ritchey-Chretien + CCD.
F52 Pan-STARRS 2, Haleakala.  Observers J. Herman, T. Lowe, P. Minguez, A.
    Schultz, I. Smith.  Measurers K. Chambers, T. de Boer, J. Fairlamb, H.
    Gao, M. Huber, C.-C. Lin, E. Magnier, Y. Ramanjooloo, R. Wainscoat, R.
    Weryk.  1.8-m Ritchey-Chretien + CCD.

Orbital elements:
2024 CH11                                           PHA, Earth MOID = 0.0430 AU
Epoch 2024 Mar. 31.0 TT = JDT 2460400.5                 Veres                   
M 348.69162              (2000.0)            P               Q                  
n   0.31808497     Peri.  284.96009     -0.61579487     +0.78458616             
a   2.1253997      Node   306.80033     -0.68377216     -0.57772171             
e   0.5755259      Incl.    5.17745     -0.39147453     -0.22508260             
P   3.10           H   22.06          G   0.15           U   7                  
Residuals in seconds of arc
240204 F52  0.1-  0.0     240213 F52  0.1-  0.1-    240228 F51  0.1+  0.2+
240205 F52  0.0   0.1+    240213 F52  0.0   0.1+    240302 F51  0.1-  0.1-
240205 F52  0.1+  0.1-    240227 F51  0.3-  0.3-    240302 F51  0.1+  0.0
240213 F52  0.1+  0.0     240227 F51  0.0   0.2-    240302 F51  0.1-  0.0
240213 F52  0.1-  0.0     240228 F51  0.3+  0.5+    240302 F51  0.0   0.0

Ephemeris:
2024 CH11                a,e,i = 2.13, 0.58, 5                   q = 0.9022
Date    TT    R. A. (2000) Decl.     Delta      r    Elong.  Phase     V
2024 02 01    10 06 54.0 +08 32 20   0.5127  1.4782   160.4    12.9    22.2
...
2024 02 16    09 48 41.1 +06 19 51   0.3678  1.3538   173.5     4.8    21.0
...
2024 02 24    09 32 17.6 +04 43 36   0.3057  1.2880   165.8    10.8    20.7
...
2024 03 01    09 16 38.2 +03 10 44   0.2656  1.2394   156.8    18.4    20.6
2024 03 02    09 13 44.0 +02 53 03   0.2594  1.2313   155.2    19.8    20.6
2024 03 03    09 10 44.7 +02 34 38   0.2534  1.2234   153.5    21.2    20.6
...
2024 03 09    08 50 57.9 +00 27 08   0.2200  1.1762   143.1    30.5    20.4
...
2024 03 17    08 19 13.6 -03 20 49   0.1821  1.1159   127.8    44.8    20.3
...
2024 04 01    06 51 59.8 -14 54 49   0.1286  1.0154    93.6    79.2    20.4

M. P. C. Staff               (C) Copyright 2024 MPC           M.P.E.C. 2024-E13





More information about the Iaude mailing list